Powrót do katalogu

SCOUT X-4 R/B

AktywnyLEO
NORAD 907·ROCKET BODY·🇺🇸 United States

Wystrzelony Oct 10, 1964 z Vandenberg Space Force Base

Loading…

Następne Przeloty (najbliższe 24 godziny)

TLE

ŚwieżeSource: Space-Track

Epoka: Sep 14, 2026, 11:05 UTC

1 00907U 64064B   26257.46198823  .00000070  00000-0  55602-4 0  9998
2 00907  79.6887  72.0485 0120885  73.1615 288.2752 13.80956038114964

Śledź SCOUT X-4 R/B w czasie rzeczywistym z AllMySat

Download on the App Store